Regional Weather Roundup
Issued by NWS Raleigh/Durham, NC

Home | Current Version | Previous Version | Text Only | Print | Product List | Glossary On
Versions: 1 2 3 4 5 6 7 8 9 10 11 12 13 14 15 16 17 18 19 20 21 22 23 24 25 26 27 28 29 30 31 32 33 34 35 36 37 38 39 40 41 42 43 44 45 46 47 48 49 50
000
ASUS42 KRAH 291010
RWRRAH
NORTH CAROLINA WEATHER ROUNDUP
NATIONAL WEATHER SERVICE RALEIGH NC
500 AM EST SAT NOV 29 2014

NOTE: "FAIR" INDICATES FEW OR NO CLOUDS BELOW 12,000 FEET WITH NO
SIGNIFICANT WEATHER AND/OR OBSTRUCTIONS TO VISIBILITY.

NCZ001-053-055-056-065-067-291100-
WESTERN NORTH CAROLINA

CITY           SKY/WX    TMP DP  RH WIND       PRES   REMARKS
ASHEVILLE      PTCLDY    28  24  85 CALM      30.20S
JEFFERSON      MOCLDY    29  16  56 CALM      30.15S
MORGANTON      PTCLDY    28  27  94 CALM      30.27F
HICKORY        PTCLDY    29  26  89 CALM      30.23S
RUTHERFORDTON  PTCLDY    28  25  87 CALM      30.24F
MOUNT AIRY     MOCLDY    30  26  84 CALM      30.24F
BOONE          CLOUDY    24  23  98 CALM      30.16S
$$

NCZ021-022-025-041-071-084-088-291100-
CENTRAL NORTH CAROLINA

CITY           SKY/WX    TMP DP  RH WIND       PRES   REMARKS
CHARLOTTE      MOCLDY    33  23  66 S3        30.27S
GREENSBORO     MOCLDY    29  24  82 SW5       30.25R WCI  24
WINSTON-SALEM  MOCLDY    32  22  66 S3        30.25S
RALEIGH-DURHAM MOCLDY    29  23  78 CALM      30.30S
FORT BRAGG     PTCLDY    30  28  93 CALM      30.31S
FAYETTEVILLE   PTCLDY    30  26  85 CALM      30.31S
BURLINGTON     PTCLDY    27  22  81 CALM      30.27S
LAURINBURG     PTCLDY    31  28  89 CALM      30.32S
$$

NCZ011-015-027-028-043-044-047-080-103-291100-
NORTHEASTERN NORTH CAROLINA

CITY           SKY/WX    TMP DP  RH WIND       PRES   REMARKS
ROCKY MT-WILSO PTCLDY    27  25  92 SW3       30.32S
GREENVILLE     PTCLDY    28  28 100 CALM      30.33S
WASHINGTON     PTCLDY    27  26  94 CALM      30.34S
ELIZABETH CITY CLEAR     29  24  82 CALM      30.33F
MANTEO         CLEAR     30  28  92 CALM      30.33F
CAPE HATTERAS  CLEAR     34  27  75 CALM      30.35R
$$

NCZ078-087-090-091-093-098-101-291100-
SOUTHEASTERN NORTH CAROLINA

CITY           SKY/WX    TMP DP  RH WIND       PRES   REMARKS
LUMBERTON      CLEAR     30  27  88 CALM      30.32S
GOLDSBORO      PTCLDY    29  28  97 CALM      30.31S
KINSTON        PTCLDY    28  28  96 CALM      30.34R
KENANSVILLE    MOCLDY    27  27 100 CALM      30.34R
NEW BERN       PTCLDY    29  25  85 CALM      30.35S
CHERRY POINT   PTCLDY    30  27  88 CALM      30.36R
BEAUFORT       PTCLDY    31  28  89 CALM      30.35S
JACKSONVILLE   MOCLDY    30  28  92 CALM      30.33S
WILMINGTON     PTCLDY    31  29  92 CALM      30.33S
$$




USA.gov is the U.S. government's official web portal to all federal, state and local government web resources and services.